No particular awareness of the weather is required.    There are no Weather-warnings


Meteo18 Weather Cam more information Meteo18 Weather Cam


Thunder radar more information blitzortung!


Rain radar more information rain snow radar


Visit our other weather sites:

Template documentation
and downloads

And another site



Weather Underground History page Text

Daily Summary for October 8, 2017 Units:  English    Metric   Both
« Previous Day
Next Day »
Daily Weekly Monthly Yearly Custom
  High: Low: Average:
Temperature: TemperatureC °F 9.9 °F 12.6 °F
Dew Point: DewpointC °F 8.4 °F 11.1 °F
Humidity: Humidity % 81 % 90 %
Wind Speed: WindSpeedKMH mph 0.0 mph 3.2 mph
Wind Gust: WindSpeedGustKMH mph - -
Wind:- - WSW
Pressure: PressurehPa in 1020.5 in -
Precipitation: 5.1 in    
Historical Graphs
 
 
Tabular Data for October 8, 2017
Time Temperature Dew Point Pressure Wind Wind Speed Wind Gust Humidity Rainfall Rate (Hourly)
TemperatureC °F DewpointC °F PressurehPa in Calm     Humidity % HourlyPrecipMM in
00:02 11.5 °F 8.4 °F 1022.2 in WNW 3.2 mph 8.0 mph 81 % 0.8 in
00:12 11.3 °F 8.5 °F 1021.9 in Calm   8.0 mph 83 % 1.3 in
00:17 11.2 °F 8.6 °F 1021.9 in SW 1.6 mph 8.0 mph 84 % 1.5 in
00:22 11.2 °F 8.8 °F 1021.9 in WSW 1.6 mph 4.8 mph 85 % 1.5 in
00:32 10.9 °F 8.8 °F 1022.2 in Calm   1.6 mph 87 % 2.0 in
00:42 10.8 °F 8.9 °F 1021.9 in Calm     88 % 2.3 in
00:47 10.8 °F 8.9 °F 1021.9 in Calm   1.6 mph 88 % 2.3 in
00:52 10.7 °F 9.0 °F 1021.9 in Calm   1.6 mph 89 % 1.8 in
01:02 10.7 °F 9.1 °F 1021.9 in Calm     90 % 1.5 in
01:07 10.6 °F 9.0 °F 1021.9 in Calm     90 % 1.5 in
01:12 10.6 °F 9.2 °F 1021.9 in Calm     91 % 1.3 in
01:17 10.6 °F 9.2 °F 1021.6 in Calm   1.6 mph 91 % 1.0 in
01:22 10.5 °F 9.3 °F 1021.9 in SW 1.6 mph 3.2 mph 92 % 1.0 in
01:27 10.4 °F 9.2 °F 1021.6 in SW 1.6 mph 3.2 mph 92 % 0.8 in
01:32 10.4 °F 9.2 °F 1021.6 in SW 3.2 mph 4.8 mph 92 % 0.5 in
01:37 10.4 °F 9.2 °F 1021.6 in SW 1.6 mph 8.0 mph 92 % 0.5 in
01:42 10.5 °F 9.4 °F 1021.6 in WSW 6.4 mph 8.0 mph 93 % 0.5 in
01:47 10.5 °F 9.4 °F 1021.6 in SSW 8.0 mph 9.7 mph 93 % 0.5 in
01:52 10.4 °F 9.3 °F 1021.6 in WSW 6.4 mph 11.3 mph 93 % 0.5 in
01:57 10.4 °F 9.3 °F 1021.6 in WSW 11.3 mph 11.3 mph 93 % 0.5 in
02:02 10.5 °F 9.4 °F 1021.6 in SW 3.2 mph 16.1 mph 93 % 0.5 in
02:07 10.5 °F 9.4 °F 1021.6 in WNW 8.0 mph 16.1 mph 93 % 0.5 in
02:12 10.5 °F 9.4 °F 1021.6 in SW 6.4 mph 16.1 mph 93 % 0.8 in
02:17 10.4 °F 9.3 °F 1021.6 in West 4.8 mph 16.1 mph 93 % 1.0 in
02:22 10.4 °F 9.3 °F 1021.2 in WSW 4.8 mph 14.5 mph 93 % 1.3 in
02:27 10.3 °F 9.2 °F 1021.6 in WSW 9.7 mph 14.5 mph 93 % 1.3 in
02:32 10.3 °F 9.2 °F 1021.2 in West 4.8 mph 17.7 mph 93 % 1.3 in
02:37 10.3 °F 9.2 °F 1021.6 in WSW 6.4 mph 17.7 mph 93 % 1.3 in
02:42 10.2 °F 9.0 °F 1021.6 in WSW 4.8 mph 17.7 mph 92 % 1.3 in
02:47 10.2 °F 9.0 °F 1021.6 in WSW 3.2 mph 12.9 mph 92 % 1.3 in
02:52 10.2 °F 9.0 °F 1021.2 in SW 6.4 mph 12.9 mph 92 % 1.3 in
02:57 10.1 °F 8.9 °F 1021.2 in West 6.4 mph 12.9 mph 92 % 1.0 in
03:02 10.1 °F 8.9 °F 1021.2 in SSW 1.6 mph 12.9 mph 92 % 0.8 in
03:07 10.0 °F 8.9 °F 1021.2 in SW 4.8 mph 12.9 mph 93 % 0.8 in
03:12 10.0 °F 8.9 °F 1021.2 in Calm   9.7 mph 93 % 0.8 in
03:17 9.9 °F 8.8 °F 1021.2 in Calm   8.0 mph 93 % 0.5 in
03:22 9.9 °F 8.8 °F 1021.2 in West 4.8 mph 14.5 mph 93 % 0.5 in
03:27 9.9 °F 8.8 °F 1021.2 in WSW 11.3 mph 14.5 mph 93 % 0.5 in
03:32 9.9 °F 8.8 °F 1021.2 in SW 3.2 mph 16.1 mph 93 % 0.5 in
03:37 9.9 °F 8.8 °F 1020.9 in WNW 9.7 mph 16.1 mph 93 % 0.5 in
03:42 9.9 °F 8.8 °F 1020.9 in WSW 14.5 mph 16.1 mph 93 % 0.5 in
03:47 9.9 °F 8.8 °F 1020.9 in WNW 6.4 mph 19.3 mph 93 % 0.8 in
03:52 9.9 °F 9.0 °F 1020.9 in WSW 16.1 mph 19.3 mph 94 % 1.0 in
03:57 9.9 °F 9.0 °F 1020.9 in WSW 11.3 mph 19.3 mph 94 % 1.0 in
04:02 9.9 °F 9.0 °F 1020.9 in WSW 4.8 mph 16.1 mph 94 % 1.5 in
04:07 9.9 °F 9.0 °F 1020.9 in WSW 8.0 mph 16.1 mph 94 % 1.5 in
04:12 9.9 °F 9.0 °F 1020.9 in WSW 3.2 mph 14.5 mph 94 % 1.5 in
04:17 9.9 °F 9.0 °F 1020.9 in SSW 3.2 mph 14.5 mph 94 % 1.5 in
04:22 9.9 °F 9.0 °F 1020.9 in WSW 11.3 mph 14.5 mph 94 % 1.5 in
04:37 9.9 °F 9.1 °F 1020.5 in West 3.2 mph 14.5 mph 95 % 1.5 in
04:42 9.9 °F 9.1 °F 1020.9 in SW 3.2 mph 12.9 mph 95 % 1.5 in
04:47 9.9 °F 9.1 °F 1020.9 in SW 6.4 mph 12.9 mph 95 % 1.5 in
04:52 9.9 °F 9.1 °F 1020.9 in WSW 8.0 mph 12.9 mph 95 % 1.3 in
05:02 10.0 °F 9.2 °F 1020.9 in SW 3.2 mph 11.3 mph 95 % 0.5 in
05:07 10.0 °F 9.2 °F 1020.9 in West 6.4 mph 9.7 mph 95 % 0.5 in
05:12 10.0 °F 9.2 °F 1020.9 in West 3.2 mph 9.7 mph 95 % 0.5 in
05:27 10.0 °F 9.2 °F 1020.9 in WSW 1.6 mph 11.3 mph 95 % 0.3 in
05:37 10.0 °F 9.4 °F 1020.9 in WSW 6.4 mph 8.0 mph 96 % 0.0 in
05:42 10.0 °F 9.4 °F 1020.9 in SW 6.4 mph 8.0 mph 96 % 0.0 in
05:47 10.0 °F 9.4 °F 1020.9 in SSW 3.2 mph 9.7 mph 96 % 0.0 in
05:52 10.0 °F 9.4 °F 1020.9 in West 4.8 mph 9.7 mph 96 % 0.0 in
06:02 10.1 °F 9.5 °F 1020.9 in Calm   9.7 mph 96 % 0.0 in
06:12 10.1 °F 9.5 °F 1020.9 in Calm   4.8 mph 96 % 0.0 in
06:17 10.1 °F 9.5 °F 1020.9 in Calm   4.8 mph 96 % 0.0 in
06:22 10.1 °F 9.5 °F 1021.2 in SSW 1.6 mph 4.8 mph 96 % 0.0 in
06:32 10.1 °F 9.5 °F 1021.2 in WSW 1.6 mph 4.8 mph 96 % 0.0 in
06:37 10.1 °F 9.5 °F 1021.2 in Calm   4.8 mph 96 % 0.0 in
06:42 10.2 °F 9.6 °F 1021.2 in WSW 6.4 mph 6.4 mph 96 % 0.0 in
06:47 10.2 °F 9.6 °F 1020.9 in WSW 1.6 mph 4.8 mph 96 % 0.0 in
06:57 10.2 °F 9.6 °F 1021.2 in SW 1.6 mph 6.4 mph 96 % 0.0 in
07:02 10.2 °F 9.6 °F 1021.2 in WSW 1.6 mph 6.4 mph 96 % 0.0 in
07:12 10.2 °F 9.6 °F 1021.2 in SW 1.6 mph 4.8 mph 96 % 0.0 in
07:17 10.3 °F 9.7 °F 1021.2 in West 4.8 mph 4.8 mph 96 % 0.0 in
07:22 10.3 °F 9.7 °F 1020.9 in WSW 4.8 mph 6.4 mph 96 % 0.0 in
07:32 10.3 °F 9.7 °F 1020.9 in WSW 6.4 mph 8.0 mph 96 % 0.0 in
07:42 10.3 °F 9.7 °F 1021.2 in WSW 1.6 mph 9.7 mph 96 % 0.0 in
07:47 10.3 °F 9.7 °F 1021.2 in West 4.8 mph 9.7 mph 96 % 0.0 in
07:52 10.4 °F 9.8 °F 1021.2 in West 3.2 mph 9.7 mph 96 % 0.0 in
07:57 10.4 °F 9.8 °F 1021.2 in West 8.0 mph 9.7 mph 96 % 0.0 in
08:12 10.5 °F 9.9 °F 1021.2 in West 3.2 mph 9.7 mph 96 % 0.0 in
08:17 10.6 °F 10.0 °F 1021.2 in SW 1.6 mph 9.7 mph 96 % 0.0 in
08:22 10.6 °F 10.0 °F 1021.2 in West 1.6 mph 9.7 mph 96 % 0.0 in
08:32 10.7 °F 10.1 °F 1021.2 in WSW 3.2 mph 6.4 mph 96 % 0.0 in
08:42 10.8 °F 10.2 °F 1021.2 in WSW 3.2 mph 9.7 mph 96 % 0.0 in
08:52 10.9 °F 10.3 °F 1021.6 in WSW 4.8 mph 9.7 mph 96 % 0.0 in
08:57 10.9 °F 10.3 °F 1021.6 in West 4.8 mph 9.7 mph 96 % 0.0 in
09:12 11.1 °F 10.5 °F 1021.6 in WNW 3.2 mph 9.7 mph 96 % 0.0 in
09:17 11.1 °F 10.5 °F 1021.6 in Calm   9.7 mph 96 % 0.0 in
09:22 11.2 °F 10.6 °F 1021.6 in Calm   4.8 mph 96 % 0.0 in
09:32 11.3 °F 10.7 °F 1021.6 in Calm   6.4 mph 96 % 0.0 in
09:37 11.4 °F 10.8 °F 1021.6 in NNW 1.6 mph 8.0 mph 96 % 0.0 in
09:42 11.4 °F 10.8 °F 1021.9 in WNW 6.4 mph 9.7 mph 96 % 0.0 in
09:52 11.7 °F 11.1 °F 1021.9 in WNW 1.6 mph 11.3 mph 96 % 0.0 in
10:02 11.8 °F 11.2 °F 1021.9 in West 3.2 mph 11.3 mph 96 % 0.0 in
10:12 12.0 °F 11.4 °F 1021.9 in West 6.4 mph 9.7 mph 96 % 0.0 in
10:17 12.2 °F 11.6 °F 1021.9 in WNW 14.5 mph 14.5 mph 96 % 0.0 in
10:22 12.3 °F 11.5 °F 1021.9 in West 3.2 mph 16.1 mph 95 % 0.0 in
10:32 12.7 °F 11.4 °F 1021.9 in West 8.0 mph 16.1 mph 92 % 0.0 in
10:42 13.2 °F 11.8 °F 1021.9 in NW 6.4 mph 12.9 mph 91 % 0.0 in
10:52 12.9 °F 11.1 °F 1022.2 in West 4.8 mph 12.9 mph 89 % 0.0 in
11:02 13.2 °F 11.6 °F 1022.2 in WSW 3.2 mph 12.9 mph 90 % 0.0 in
11:12 13.2 °F 11.1 °F 1021.9 in WNW 6.4 mph 11.3 mph 87 % 0.0 in
11:17 13.3 °F 11.4 °F 1022.2 in WNW 1.6 mph 11.3 mph 88 % 0.0 in
11:22 13.3 °F 11.4 °F 1022.2 in NW 9.7 mph 9.7 mph 88 % 0.0 in
11:27 13.3 °F 11.4 °F 1022.2 in WNW 3.2 mph 11.3 mph 88 % 0.0 in
11:32 13.3 °F 11.4 °F 1022.2 in Calm   11.3 mph 88 % 0.0 in
11:37 13.2 °F 11.3 °F 1022.2 in Calm   11.3 mph 88 % 0.0 in
11:42 13.5 °F 11.6 °F 1022.2 in Calm   9.7 mph 88 % 0.0 in
11:52 13.8 °F 11.5 °F 1022.2 in WNW 4.8 mph 14.5 mph 86 % 0.0 in
11:57 13.8 °F 11.5 °F 1022.2 in NNE 3.2 mph 14.5 mph 86 % 0.0 in
12:12 14.2 °F 11.5 °F 1022.2 in NNW 1.6 mph 12.9 mph 84 % 0.0 in
12:17 14.4 °F 11.5 °F 1022.2 in WNW 3.2 mph 12.9 mph 83 % 0.0 in
12:22 14.4 °F 11.4 °F 1022.2 in North 4.8 mph 12.9 mph 82 % 0.0 in
12:32 14.3 °F 11.5 °F 1022.2 in Calm   12.9 mph 83 % 0.0 in
12:42 14.3 °F 11.6 °F 1022.2 in WNW 1.6 mph 9.7 mph 84 % 0.0 in
12:47 14.3 °F 11.5 °F 1022.2 in NW 8.0 mph 9.7 mph 83 % 0.0 in
12:57 14.3 °F 11.5 °F 1022.2 in WNW 3.2 mph 9.7 mph 83 % 0.0 in
13:02 14.4 °F 11.5 °F 1022.2 in WNW 4.8 mph 9.7 mph 83 % 0.0 in
13:07 14.3 °F 11.5 °F 1022.2 in NW 3.2 mph 9.7 mph 83 % 0.0 in
13:12 14.3 °F 11.5 °F 1022.2 in WNW 4.8 mph 9.7 mph 83 % 0.0 in
13:17 14.4 °F 11.5 °F 1022.2 in WNW 9.7 mph 9.7 mph 83 % 0.0 in
13:22 14.4 °F 11.7 °F 1022.2 in WSW 3.2 mph 9.7 mph 84 % 0.0 in
13:32 14.8 °F 12.5 °F 1022.2 in SSW 3.2 mph 9.7 mph 86 % 0.0 in
13:37 14.6 °F 12.5 °F 1022.2 in SSW 11.3 mph 12.9 mph 87 % 0.0 in
13:42 14.4 °F 12.4 °F 1022.2 in WSW 9.7 mph 14.5 mph 88 % 0.0 in
13:47 14.3 °F 12.7 °F 1022.2 in SW 8.0 mph 14.5 mph 90 % 0.0 in
13:52 14.1 °F 12.3 °F 1022.2 in SW 3.2 mph 12.9 mph 89 % 0.0 in
13:57 14.1 °F 12.5 °F 1022.2 in WSW 8.0 mph 12.9 mph 90 % 0.0 in
14:02 14.3 °F 12.7 °F 1022.2 in SSW 6.4 mph 12.9 mph 90 % 0.0 in
14:07 14.6 °F 12.8 °F 1022.2 in SW 8.0 mph 12.9 mph 89 % 0.0 in
14:17 15.1 °F 13.1 °F 1021.9 in SW 9.7 mph 12.9 mph 88 % 0.0 in
14:22 14.9 °F 12.8 °F 1021.9 in West 9.7 mph 14.5 mph 87 % 0.0 in
14:27 14.9 °F 12.9 °F 1021.9 in WSW 3.2 mph 14.5 mph 88 % 0.0 in
14:32 14.9 °F 12.9 °F 1021.9 in WSW 3.2 mph 14.5 mph 88 % 0.0 in
14:37 14.8 °F 12.7 °F 1021.9 in SW 4.8 mph 14.5 mph 87 % 0.0 in
14:42 14.8 °F 12.7 °F 1021.6 in SW 3.2 mph 9.7 mph 87 % 0.0 in
14:47 14.9 °F 12.8 °F 1021.6 in WSW 6.4 mph 11.3 mph 87 % 0.0 in
14:52 14.9 °F 12.4 °F 1021.6 in SW 8.0 mph 11.3 mph 85 % 0.0 in
14:57 14.9 °F 12.6 °F 1021.6 in SW 8.0 mph 11.3 mph 86 % 0.0 in
15:02 14.9 °F 12.8 °F 1021.6 in SSW 8.0 mph 12.9 mph 87 % 0.0 in
15:07 15.0 °F 12.7 °F 1021.6 in SW 6.4 mph 12.9 mph 86 % 0.0 in
15:12 15.0 °F 12.9 °F 1021.6 in SW 6.4 mph 14.5 mph 87 % 0.0 in
15:17 14.9 °F 12.8 °F 1021.6 in West 8.0 mph 14.5 mph 87 % 0.0 in
15:22 14.8 °F 12.7 °F 1021.6 in SSW 11.3 mph 14.5 mph 87 % 0.0 in
15:27 14.8 °F 12.7 °F 1021.6 in WSW 6.4 mph 12.9 mph 87 % 0.0 in
15:32 14.9 °F 12.8 °F 1021.6 in SW 8.0 mph 12.9 mph 87 % 0.0 in
15:37 15.2 °F 13.2 °F 1021.6 in WSW 9.7 mph 12.9 mph 88 % 0.0 in
15:42 15.2 °F 12.9 °F 1021.6 in SW 8.0 mph 16.1 mph 86 % 0.0 in
15:47 15.1 °F 12.8 °F 1021.6 in WSW 8.0 mph 16.1 mph 86 % 0.0 in
15:52 15.1 °F 12.8 °F 1021.6 in SW 8.0 mph 16.1 mph 86 % 0.0 in
15:57 15.0 °F 12.9 °F 1021.6 in SW 6.4 mph 14.5 mph 87 % 0.0 in
16:02 15.1 °F 13.0 °F 1021.6 in SW 6.4 mph 12.9 mph 87 % 0.0 in
16:12 15.2 °F 13.2 °F 1021.6 in SSW 4.8 mph 16.1 mph 88 % 0.0 in
16:17 15.2 °F 13.0 °F 1021.6 in WSW 6.4 mph 16.1 mph 87 % 0.0 in
16:22 15.1 °F 13.0 °F 1021.6 in WSW 8.0 mph 14.5 mph 87 % 0.0 in
16:32 14.9 °F 12.8 °F 1021.6 in SW 3.2 mph 11.3 mph 87 % 0.0 in
16:37 14.9 °F 12.8 °F 1021.6 in SSW 3.2 mph 11.3 mph 87 % 0.0 in
16:42 14.9 °F 12.8 °F 1021.6 in SW 1.6 mph 11.3 mph 87 % 0.0 in
16:47 14.9 °F 12.9 °F 1021.6 in SSW 1.6 mph 11.3 mph 88 % 0.0 in
16:52 14.9 °F 12.8 °F 1021.6 in Calm   6.4 mph 87 % 0.0 in
16:57 14.9 °F 12.8 °F 1021.6 in Calm   3.2 mph 87 % 0.0 in
17:02 14.9 °F 12.8 °F 1021.6 in Calm   3.2 mph 87 % 0.0 in
17:07 14.9 °F 12.8 °F 1021.6 in Calm   3.2 mph 87 % 0.0 in
17:12 15.0 °F 12.9 °F 1021.6 in WSW 3.2 mph 3.2 mph 87 % 0.0 in
17:17 15.0 °F 13.0 °F 1021.6 in Calm   3.2 mph 88 % 0.0 in
17:22 15.0 °F 12.9 °F 1021.6 in West 1.6 mph 4.8 mph 87 % 0.0 in
17:32 14.9 °F 12.9 °F 1021.6 in Calm   6.4 mph 88 % 0.0 in
17:37 14.9 °F 12.9 °F 1021.6 in SW 1.6 mph 6.4 mph 88 % 0.0 in
17:42 14.9 °F 12.8 °F 1021.6 in WSW 3.2 mph 6.4 mph 87 % 0.0 in
17:47 14.9 °F 12.8 °F 1021.6 in SSW 1.6 mph 6.4 mph 87 % 0.0 in
17:52 14.9 °F 12.8 °F 1021.6 in WSW 1.6 mph 6.4 mph 87 % 0.0 in
17:57 14.9 °F 12.8 °F 1021.6 in Calm   3.2 mph 87 % 0.0 in
18:02 14.9 °F 12.8 °F 1021.6 in Calm   3.2 mph 87 % 0.0 in
18:07 14.9 °F 12.8 °F 1021.6 in Calm   3.2 mph 87 % 0.0 in
18:12 14.9 °F 12.8 °F 1021.6 in WNW 1.6 mph 1.6 mph 87 % 0.0 in
18:17 15.1 °F 13.1 °F 1021.6 in Calm   1.6 mph 88 % 0.0 in
18:22 15.3 °F 13.3 °F 1021.6 in WNW 1.6 mph 1.6 mph 88 % 0.0 in
18:32 15.8 °F 13.3 °F 1021.6 in NW 3.2 mph 3.2 mph 85 % 0.0 in
18:47 15.7 °F 13.2 °F 1021.6 in Calm   4.8 mph 85 % 0.0 in
18:52 15.7 °F 13.2 °F 1021.6 in Calm   3.2 mph 85 % 0.0 in
18:57 15.5 °F 13.0 °F 1021.6 in Calm   1.6 mph 85 % 0.0 in
19:02 15.4 °F 13.1 °F 1021.9 in Calm   1.6 mph 86 % 0.0 in
19:07 15.3 °F 13.1 °F 1021.9 in Calm   1.6 mph 87 % 0.0 in
19:12 15.2 °F 13.0 °F 1021.9 in Calm     87 % 0.0 in
19:17 15.1 °F 13.1 °F 1021.9 in Calm     88 % 0.0 in
19:22 15.0 °F 13.0 °F 1021.9 in Calm     88 % 0.0 in
19:27 14.9 °F 12.9 °F 1021.9 in Calm     88 % 0.0 in
19:32 14.9 °F 13.1 °F 1021.9 in Calm     89 % 0.0 in
19:37 14.8 °F 13.0 °F 1021.9 in Calm     89 % 0.0 in
19:52 14.4 °F 12.8 °F 1022.2 in Calm     90 % 0.0 in
19:57 14.3 °F 12.7 °F 1022.2 in Calm     90 % 0.0 in
20:02 14.2 °F 12.8 °F 1022.2 in Calm     91 % 0.0 in
20:07 14.1 °F 12.7 °F 1022.2 in Calm   1.6 mph 91 % 0.0 in
20:12 14.0 °F 12.6 °F 1022.2 in Calm   1.6 mph 91 % 0.0 in
20:17 13.9 °F 12.5 °F 1022.2 in NNW 1.6 mph 1.6 mph 91 % 0.0 in
20:22 13.9 °F 12.5 °F 1022.2 in Calm   1.6 mph 91 % 0.0 in
20:27 14.0 °F 12.6 °F 1022.2 in Calm   1.6 mph 91 % 0.0 in
20:32 14.0 °F 12.6 °F 1022.2 in Calm   1.6 mph 91 % 0.0 in
20:37 14.0 °F 12.6 °F 1022.2 in Calm   1.6 mph 91 % 0.0 in
20:42 13.9 °F 12.5 °F 1022.2 in Calm   1.6 mph 91 % 0.0 in
20:52 13.7 °F 12.3 °F 1022.6 in Calm     91 % 0.0 in
20:57 13.7 °F 12.3 °F 1022.2 in Calm     91 % 0.0 in
21:02 13.7 °F 12.3 °F 1022.6 in Calm     91 % 0.0 in
21:12 13.6 °F 12.3 °F 1022.6 in Calm   1.6 mph 92 % 0.0 in
21:17 13.6 °F 12.3 °F 1022.6 in Calm   1.6 mph 92 % 0.0 in
21:22 13.5 °F 12.2 °F 1022.6 in Calm   1.6 mph 92 % 0.0 in
21:27 13.5 °F 12.2 °F 1022.6 in NNW 1.6 mph 3.2 mph 92 % 0.0 in
21:37 13.4 °F 12.3 °F 1022.6 in Calm   3.2 mph 93 % 0.0 in
21:42 13.4 °F 12.3 °F 1022.6 in Calm   1.6 mph 93 % 0.0 in
21:47 13.3 °F 12.2 °F 1022.6 in Calm   1.6 mph 93 % 0.0 in
21:52 13.3 °F 12.2 °F 1022.6 in Calm   1.6 mph 93 % 0.0 in
21:57 13.3 °F 12.2 °F 1022.6 in Calm   1.6 mph 93 % 0.0 in
22:02 13.2 °F 12.1 °F 1022.6 in Calm   1.6 mph 93 % 0.0 in
22:07 13.2 °F 11.9 °F 1022.6 in Calm   1.6 mph 92 % 0.0 in
22:12 13.1 °F 11.8 °F 1022.6 in Calm   1.6 mph 92 % 0.0 in
22:17 13.1 °F 12.0 °F 1022.6 in Calm   1.6 mph 93 % 0.0 in
22:22 13.0 °F 11.9 °F 1022.9 in Calm   1.6 mph 93 % 0.0 in
22:27 12.9 °F 11.8 °F 1022.6 in Calm     93 % 0.0 in
22:32 12.9 °F 11.8 °F 1022.9 in Calm     93 % 0.0 in
22:37 12.8 °F 11.7 °F 1022.9 in Calm     93 % 0.0 in
22:42 12.8 °F 11.7 °F 1022.6 in Calm     93 % 0.0 in
22:47 12.7 °F 11.6 °F 1022.9 in Calm     93 % 0.0 in
22:52 12.6 °F 11.5 °F 1022.9 in Calm     93 % 0.0 in
22:57 12.5 °F 11.4 °F 1022.6 in Calm     93 % 0.0 in
23:02 12.4 °F 11.3 °F 1022.6 in Calm     93 % 0.0 in
23:07 12.3 °F 11.4 °F 1022.6 in Calm     94 % 0.0 in
23:12 12.1 °F 11.2 °F 1022.6 in Calm     94 % 0.0 in
23:17 11.9 °F 11.0 °F 1022.6 in Calm     94 % 0.0 in
23:22 11.8 °F 10.9 °F 1022.9 in Calm     94 % 0.0 in
23:27 11.8 °F 11.0 °F 1022.9 in Calm     95 % 0.0 in
23:32 11.8 °F 11.0 °F 1022.9 in Calm   1.6 mph 95 % 0.0 in
23:37 11.8 °F 11.0 °F 1022.9 in Calm   1.6 mph 95 % 0.0 in
23:42 11.7 °F 10.9 °F 1022.9 in Calm   3.2 mph 95 % 0.0 in
23:52 11.7 °F 10.9 °F 1022.9 in Calm   3.2 mph 95 % 0.0 in
23:57 11.6 °F 10.8 °F 1022.9 in Calm   3.2 mph 95 % 0.0 in
Meteo18
Compliments of Weather Underground - 4 mb

Script developed by  Jim McMurry - jmcmurry@mwt.net Adapted for the template by  Wim van der Kuil - Leuven-Template.eu

You find our weather info also at:

European Weather Network

Weather Underground

Equipment we use:

Weather-station
Davis Vue

Weather-program
Meteobridge

Weather-server
Raspberry PI 2 B+

Provider
1 and 1

Davis Vue

Meteobridge

Raspberry PI 2 B+

1 and 1